S-NET A (43188 NORAD) Tracking and Keplerian Element Data

This shows tracking and keplerian element data for the satellite.

Feedback or suggestion? Click here.




ElementValue
Catalog43188
NameS-NET A
Epoch Orbit38337
Epoch Day34.72894475
Epoch Year2025
RAAN299.1252
Inclination97.5754
Eccentricity0.0008455
Argument of Perigee299.3018
Mean Anonmoly60.7366
Mean Motion15.09596577
Decay Rate9.574E-05
L11 43188U 18014J 25034.72894475 .00009574 00000+0 59891-3 0 9997
L22 43188 97.5754 299.1252 0008455 299.3018 60.7366 15.09596577383373



Live tracking and technical data element details for S-NET A (NORAD 43188). S-NET A can be tracked NOW for your location showing map with azimuth and elevation plus other details from your city location.







IsCatalogInMostPopularTable: catalog: 43188, numindb: 797
Update: records affected: 1



GetName: 43188 S-NET A

Hit Count: updated at: Mon, 23 Jun 2025 11:58:44 GMT